Dewpoint
54 54 54 53 53 53 53 53 53 54 54 54 55 55 55 55 56 56 56 56 56 56 56 57 57 57 58 58 58 58 57 51 44 40 39 38 42 53 56 57 59 60 60 33 29 29 30 31 31 32 31 16 13 16 11 13 10 10 13 10 13 12 10 11 10 10 11 10 10 9 5 8 5 7 11 10 12 25 31 30 36 47 48 46 48 56 58 60
54 53 53 53 53 54 53 53 54 54 54 54 55 55 55 56 56 56 56 56 56 56 57 57 57 58 58 58 58 57 55 52 45 45 42 45 55 58 59 60 61 58 50 26 28 30 31 30 31 29 24 16 16 10 11 8 8 7 15 12 5 10 9 10 10 10 11 10 8 5 6 8 5 9 10 3 2 18 8 27 44 41 48 48 52 57 61 61
53 53 52 53 54 54 53 54 54 54 54 55 55 55 55 56 56 56 56 56 56 57 57 57 58 58 58 58 58 57 54 48 44 40 39 55 55 59 59 61 59 60 31 28 32 31 31 30 30 30 19 13 12 10 11 6 8 4 7 5 5 8 8 10 11 10 9 7 5 1 2 6 5 10 10 1 0 9 2 10 39 50 51 53 57 59 59 58
53 53 54 54 54 53 53 54 54 54 54 55 55 55 56 56 56 56 56 56 57 57 57 57 58 58 58 58 57 55 53 41 34 33 25 57 58 58 59 59 60 60 47 40 38 36 31 29 29 28 13 13 7 10 6 5 6 3 4 3 3 3 3 2 4 4 4 6 5 2 1 1 1 10 7 1 -1 -2 0 5 31 50 51 53 56 58 60 60
54 54 54 54 53 54 55 54 54 54 54 55 55 55 56 56 56 56 56 56 56 57 57 58 58 58 58 58 57 53 42 24 26 28 27 57 57 58 58 59 60 50 42 39 33 29 30 28 29 30 9 5 7 3 2 4 4 4 1 2 2 4 1 2 2 2 7 12 3 2 -2 -2 6 7 4 2 1 -2 2 -1 21 51 51 53 56 57 59 58
54 54 53 53 54 55 54 54 54 54 54 55 55 55 56 56 56 56 56 57 57 57 57 58 58 58 58 57 54 52 32 19 25 26 53 57 58 59 59 59 62 50 40 30 25 24 27 28 23 18 7 6 7 7 1 1 4 2 3 2 2 2 3 6 6 5 7 4 4 2 1 -1 5 4 7 5 2 1 8 6 22 42 52 53 55 56 58 59
53 53 53 54 54 54 54 54 54 54 54 55 55 55 56 56 56 56 57 57 57 57 57 58 58 58 58 56 53 45 33 31 31 28 57 57 57 57 59 62 59 44 38 33 31 30 31 28 28 22 15 2 1 2 2 4 5 1 -1 3 3 5 2 4 -2 1 1 3 2 2 5 -2 -1 -2 5 1 -0 -1 5 6 11 33 51 53 52 57 55 58
53 53 53 54 54 54 53 54 54 54 54 54 54 55 56 56 56 57 57 57 57 57 57 58 58 58 57 50 38 35 38 34 34 32 56 58 55 54 60 52 42 38 34 31 31 29 27 22 10 9 2 3 2 2 -1 -3 -3 2 1 4 2 1 2 -4 -2 -3 0 -3 -0 2 -0 -3 -1 -1 3 -1 -2 -1 10 5 12 11 25 44 48 52 55 57
53 53 53 54 53 53 54 54 54 54 54 54 55 55 56 56 56 56 57 57 57 57 57 58 58 58 57 52 41 33 34 38 38 30 45 52 46 46 44 30 37 33 31 32 30 29 21 7 7 8 5 2 3 2 2 -5 -10 -3 -1 1 -2 -4 -5 -7 -3 -3 -4 -3 -1 -3 -2 -1 -2 3 -1 -3 -2 3 13 16 10 10 14 27 49 54 53 54
53 53 53 53 53 54 54 54 54 54 54 55 55 55 56 56 56 56 57 57 57 57 58 58 58 58 54 47 33 29 34 32 30 29 39 44 41 40 40 31 34 33 32 32 20 16 10 8 8 10 7 6 6 3 4 -1 -3 -2 -0 -2 -3 -6 -6 -4 -4 -6 -4 1 -1 1 2 -0 -0 1 -3 26 23 21 14 10 12 10 18 36 47 47 45 43
53 53 53 53 53 53 53 53 54 54 54 55 55 55 56 56 56 56 56 57 57 57 58 58 58 55 45 38 33 30 36 27 27 28 34 39 40 36 33 33 33 31 25 17 15 15 13 13 11 9 4 4 4 3 4 2 3 -1 1 1 -1 -1 -2 -4 -6 -8 -5 -4 3 2 1 2 -0 2 -2 -1 18 30 10 20 19 16 19 27 34 40 41 49
52 52 52 53 53 53 53 53 54 54 54 54 55 55 55 55 56 55 56 57 57 58 59 58 58 54 45 41 35 31 38 26 30 28 30 38 37 34 32 31 29 27 16 14 13 13 14 12 7 7 4 7 3 5 2 3 3 1 2 -1 1 -0 -2 -2 -5 -6 -2 -5 1 3 -1 -4 -2 -4 -2 0 20 31 17 12 21 22 22 29 32 35 43 47
53 53 53 53 53 53 53 53 54 54 54 54 54 55 55 55 55 55 56 57 58 58 58 58 57 53 45 32 38 41 42 40 25 27 29 33 31 27 27 21 18 16 14 15 13 14 12 13 8 6 8 7 5 2 4 6 3 -1 -1 4 -2 -2 -4 -4 -3 -5 -4 -0 3 -1 -4 -4 -2 -2 -1 18 20 19 16 18 17 25 24 28 32 33 38 44
53 53 53 53 53 53 53 53 54 54 54 54 54 54 54 55 54 55 56 57 57 58 58 58 55 48 44 34 31 36 34 31 26 25 21 24 23 24 24 23 21 16 17 15 14 12 13 11 11 10 16 7 5 6 4 5 4 -2 -3 -2 3 1 1 1 5 -2 -4 1 0 -2 -0 -3 -4 -3 -2 25 23 17 18 19 22 24 28 30 34 41 44 46
53 53 53 53 53 53 53 54 54 54 54 54 54 54 54 54 54 55 56 57 58 58 58 57 54 44 37 33 37 37 56 31 26 24 24 23 21 22 22 24 21 19 15 13 16 16 14 15 13 10 7 14 10 7 5 4 4 -0 -1 2 8 1 2 3 6 -5 -5 0 2 -4 12 2 -1 -0 10 21 21 18 21 21 23 26 27 33 35 38 40 44
53 53 53 53 53 53 53 54 54 54 54 54 54 53 53 54 55 56 56 56 56 57 55 49 53 42 36 32 33 47 31 28 27 28 25 22 21 21 21 23 24 23 20 16 14 17 16 14 9 7 9 9 8 6 6 6 8 18 1 6 13 7 2 8 8 2 -2 5 2 -5 -7 3 1 10 9 12 16 18 20 20 21 22 31 35 36 37 38 41
53 53 53 53 53 53 54 54 54 54 54 53 53 53 53 53 55 56 55 55 54 55 47 39 49 43 33 35 36 33 26 29 30 26 26 21 23 24 24 22 22 21 24 20 17 16 16 16 18 14 13 8 8 7 8 12 10 8 19 14 16 11 11 8 9 6 4 4 2 0 -1 2 5 8 8 17 28 18 20 25 28 30 34 37 38 39 40 42
53 53 53 53 53 53 54 54 54 54 53 53 52 52 50 52 55 52 46 51 50 49 49 44 39 36 33 38 33 33 29 29 27 26 25 24 22 25 22 23 22 22 19 19 20 15 17 14 13 12 15 12 11 14 10 9 14 21 22 19 16 16 13 9 9 8 4 6 3 -0 -2 3 5 9 14 26 32 24 21 28 28 32 34 35 37 38 39 42
53 53 53 53 53 53 54 54 54 53 52 52 51 52 53 54 53 43 42 42 37 36 34 37 38 29 24 25 33 32 26 25 29 24 23 23 25 24 27 27 24 24 19 19 19 17 17 16 20 17 15 17 14 9 10 12 16 12 17 17 18 10 7 4 7 8 7 2 1 1 1 1 8 14 18 21 29 25 25 30 32 32 34 36 38 38 39 41
52 53 53 53 53 53 53 54 53 53 52 50 48 51 49 41 41 38 40 39 32 29 29 32 34 34 32 25 23 23 26 27 23 23 25 24 30 24 21 24 24 23 27 21 24 17 17 15 15 16 15 16 15 13 12 17 14 14 14 13 9 7 6 7 13 14 6 9 8 2 8 8 11 14 18 20 28 27 30 31 33 33 34 36 37 38 38 39
52 52 53 53 53 53 53 53 52 52 52 50 50 49 38 37 36 36 37 37 36 35 32 32 32 31 31 31 27 25 22 20 24 22 23 27 22 20 18 19 20 22 19 18 19 22 16 17 17 15 15 16 15 16 17 14 14 13 13 13 13 12 10 11 15 16 18 14 13 15 10 10 8 16 21 23 24 29 31 33 35 36 36 36 36 37 38 40
52 53 53 53 53 53 53 52 52 51 51 50 52 48 43 39 39 39 38 36 37 35 34 33 33 31 32 32 31 24 19 19 17 18 23 25 25 19 19 22 20 16 19 18 19 22 20 17 17 17 17 18 20 16 15 15 13 12 15 15 14 15 12 14 18 18 23 16 16 17 13 16 19 21 24 26 29 31 32 34 35 35 35 36 36 37 38 38
52 52 52 52 52 53 52 51 51 51 52 52 50 45 42 41 43 44 41 38 37 38 35 34 33 32 32 30 26 23 20 18 17 19 22 24 30 25 21 16 18 16 14 21 17 23 20 20 19 19 18 20 20 19 16 15 18 15 13 16 17 19 19 17 24 24 19 19 16 17 16 21 25 28 26 29 29 32 35 35 36 37 35 35 35 36 38 38
52 52 52 52 52 52 52 50 51 52 48 49 50 42 43 43 46 42 40 36 33 33 33 33 32 28 25 24 24 21 19 19 20 20 28 25 23 22 19 17 15 14 12 13 16 15 14 18 20 21 21 20 21 21 18 18 16 19 15 15 18 28 25 18 21 25 20 19 21 21 25 24 29 24 21 26 28 29 33 35 37 38 38 38 39 38 38 40
52 52 52 52 52 51 50 50 49 47 49 50 48 44 45 46 49 44 43 38 34 32 33 31 29 27 27 26 24 21 22 21 19 22 26 22 25 22 22 19 16 14 14 14 14 11 12 15 20 18 18 18 21 18 15 18 21 25 26 19 20 19 17 25 20 20 18 19 23 17 14 18 25 29 21 26 25 29 33 33 34 35 35 35 35 37 40 42
52 52 52 52 51 50 50 47 48 49 50 44 44 47 46 46 52 49 42 34 30 32 30 30 27 24 26 23 23 22 21 20 21 24 23 23 32 22 20 17 16 12 19 19 19 18 16 21 20 18 18 17 16 14 19 21 22 22 22 20 19 19 18 19 22 19 19 15 26 21 13 16 28 24 25 27 28 32 34 34 34 34 35 35 36 37 38 40
52 52 52 51 51 50 46 44 49 51 47 46 47 50 48 49 52 48 37 29 27 34 32 26 25 25 25 24 23 21 20 20 22 23 24 32 22 24 17 18 18 22 22 27 23 17 21 17 19 19 17 18 22 21 23 24 22 21 22 21 19 18 18 20 20 20 20 24 25 22 18 16 17 23 31 28 30 31 32 33 33 35 34 35 36 36 37 38
52 51 51 51 51 50 47 48 49 49 48 49 52 51 51 51 51 46 33 24 22 33 25 25 24 26 26 24 22 20 21 22 19 30 23 25 22 18 16 15 12 13 16 19 17 18 27 21 22 22 23 19 21 22 23 24 22 21 21 21 21 20 20 20 21 20 23 23 20 26 25 19 23 28 30 26 28 30 30 31 33 34 35 34 34 35 37 39
51 51 51 50 50 50 50 49 51 49 51 53 53 52 53 53 49 41 29 25 32 25 28 29 27 25 23 23 22 22 20 22 20 25 26 26 25 19 18 15 16 15 17 16 17 18 19 22 21 22 21 22 22 21 20 20 21 22 21 21 25 26 27 26 23 26 27 21 21 24 25 18 22 29 28 28 26 28 30 31 32 33 33 33 34 35 36 37
50 51 51 50 48 51 50 51 49 50 52 52 54 54 54 49 42 32 26 23 35 25 27 27 26 28 24 21 22 26 23 23 23 25 27 24 24 23 22 21 18 19 17 22 19 18 16 34 31 20 19 20 21 21 21 20 20 22 21 20 25 30 32 33 32 29 25 18 21 25 30 22 20 26 24 23 26 27 30 32 34 36 35 35 34 34 36 36
50 50 50 49 45 48 49 43 47 52 54 54 54 54 49 44 35 27 26 32 35 32 29 29 31 28 27 30 27 26 19 24 22 19 21 20 20 23 24 21 22 23 28 28 26 27 24 24 24 22 31 22 21 22 22 22 23 21 25 24 24 25 27 28 27 28 19 18 24 29 29 25 19 25 28 30 34 29 30 30 31 32 32 32 33 33 35 36
50 49 49 48 48 50 46 45 50 51 54 55 54 51 44 34 35 29 29 41 33 32 33 30 33 33 31 31 29 25 24 32 34 21 18 16 22 21 22 20 26 19 21 24 21 27 26 23 24 25 33 21 22 21 22 24 24 23 26 30 23 20 21 17 20 16 18 18 24 30 30 23 22 26 33 33 29 30 31 31 31 31 32 31 31 33 36 36
49 49 49 49 50 47 49 47 48 47 54 54 52 47 38 31 28 34 36 38 33 39 36 42 36 32 30 29 28 29 28 26 29 28 24 30 22 22 23 22 25 23 19 28 24 24 23 27 26 27 25 28 22 21 22 22 25 24 23 23 20 17 16 14 15 19 19 23 26 28 29 21 26 28 32 30 31 30 31 32 31 32 32 30 30 33 34 35
48 48 46 49 49 49 50 53 51 54 52 53 48 42 36 29 30 46 38 37 38 42 42 38 35 33 34 28 31 30 26 28 28 26 19 22 17 21 27 26 24 23 29 25 18 22 19 23 25 26 27 26 23 23 23 23 24 23 23 21 23 21 18 14 19 12 13 19 22 30 21 20 20 24 35 33 31 32 31 32 33 34 32 30 29 31 33 34
48 47 47 48 51 51 50 50 51 54 53 49 43 37 28 28 34 32 34 36 39 44 39 38 36 34 33 34 34 29 29 25 29 27 28 21 22 23 24 23 26 23 26 22 25 24 25 23 24 23 27 27 25 24 24 24 24 26 25 26 25 24 26 19 21 20 20 19 18 20 19 25 25 34 39 39 38 36 37 34 33 30 31 31 31 31 33 33
46 42 48 48 55 57 53 52 52 55 51 45 37 33 31 34 32 40 36 40 43 36 36 35 38 34 32 33 34 29 29 31 26 25 28 24 25 23 22 27 23 23 26 20 24 20 23 20 26 21 23 20 23 24 23 21 17 25 19 21 24 30 26 22 22 27 23 21 17 20 25 30 33 30 36 37 36 36 38 38 37 35 36 36 35 35 34 35
42 47 44 50 52 56 54 54 55 53 49 43 33 29 37 41 41 43 42 38 37 39 37 29 32 30 30 30 32 32 34 33 33 28 23 31 27 28 24 26 23 21 25 27 23 24 19 19 23 21 21 19 24 24 22 25 25 24 20 25 29 29 31 24 17 21 19 15 17 24 24 24 24 22 38 35 36 37 38 40 42 40 38 38 36 35 36 36
44 46 50 52 53 53 55 55 53 51 47 41 33 42 44 39 46 44 42 41 41 42 35 32 33 36 32 30 31 31 34 31 31 30 29 34 26 29 26 28 20 21 22 28 22 24 24 16 22 23 21 24 25 26 25 27 25 24 25 29 25 19 22 29 23 15 14 12 13 21 25 24 25 25 33 33 35 36 39 41 44 41 38 37 36 36 36 36
45 48 43 48 52 54 54 53 50 47 42 37 32 34 42 42 42 42 44 42 42 39 36 37 33 37 35 31 33 36 35 30 34 33 29 29 26 30 27 23 26 21 21 21 21 23 27 16 19 24 25 26 25 24 24 27 28 33 30 32 35 26 27 22 25 25 19 13 15 16 23 21 27 29 34 32 35 36 39 40 40 40 34 35 34 34 35 36
46 39 36 48 53 54 55 53 49 44 39 32 34 37 44 39 42 43 45 40 38 34 36 35 38 32 37 34 35 31 34 33 33 33 33 34 29 35 28 25 29 26 20 22 24 26 21 20 14 23 26 24 22 26 23 26 26 28 29 28 28 31 33 25 27 21 19 16 16 15 15 20 28 34 35 33 36 38 37 37 37 36 35 35 35 36 37 36
46 38 37 48 52 51 53 49 45 40 38 39 41 39 38 40 43 44 44 43 42 43 38 37 36 33 35 33 33 34 34 35 34 31 33 34 27 25 32 28 25 27 24 25 28 32 25 26 19 26 24 24 23 27 24 23 29 30 28 26 26 26 25 20 21 27 27 22 19 18 17 22 27 38 37 34 36 38 38 36 36 35 34 35 35 36 38 36
43 33 42 47 40 42 48 39 39 41 37 36 34 38 41 47 42 42 44 40 43 40 45 40 41 38 37 37 36 35 35 34 34 34 37 32 35 33 34 23 24 27 22 19 25 35 30 30 25 22 24 26 26 26 25 36 34 33 31 29 34 30 28 22 17 21 25 26 29 24 20 21 30 38 38 37 37 38 38 37 35 35 35 35 36 37 37 36
35 32 39 39 40 42 43 35 37 34 36 37 39 39 39 39 38 41 41 42 42 43 40 40 39 38 41 38 39 36 37 33 35 34 36 36 36 33 32 34 35 20 29 24 28 28 40 26 21 25 28 30 28 27 34 38 33 33 34 35 33 28 31 28 27 27 26 26 23 20 19 22 31 38 37 37 37 37 37 35 35 36 36 36 36 36 37 37
39 39 40 45 50 48 39 29 30 30 34 38 40 39 41 36 39 38 39 41 41 42 40 40 41 41 39 39 37 36 41 32 38 35 35 35 35 38 34 39 37 34 25 25 23 31 20 25 24 18 18 20 24 29 30 33 35 32 30 32 34 34 35 37 37 36 28 27 26 21 18 18 30 39 39 37 34 36 34 35 35 35 37 36 37 36 37 37
40 42 41 43 46 43 37 37 36 30 34 35 36 34 34 36 38 38 37 40 46 45 43 42 41 42 42 41 38 36 40 37 36 40 37 39 37 37 36 39 38 36 41 45 41 36 23 24 19 13 11 11 11 18 21 26 28 31 34 35 37 35 35 28 24 26 24 26 28 22 19 25 31 36 36 37 38 36 35 35 37 36 36 36 38 37 38 38
40 34 38 40 43 42 40 42 40 37 34 34 29 34 35 34 38 38 37 41 44 46 44 44 43 43 41 39 38 36 36 41 39 38 38 37 37 36 37 36 36 36 41 44 41 33 26 29 26 23 20 19 20 23 31 33 31 27 31 33 32 34 33 32 30 25 25 24 25 27 26 27 28 30 36 37 37 37 36 35 35 33 34 37 37 38 38 37
41 36 36 36 39 38 39 39 38 37 35 37 30 34 32 34 37 37 37 35 40 41 40 43 42 40 42 40 39 38 38 36 43 39 39 37 38 36 37 36 37 40 45 40 40 30 26 20 25 25 23 23 25 27 29 32 31 32 32 32 33 33 33 31 27 28 31 27 27 30 31 29 29 33 35 37 38 38 39 37 35 34 36 34 37 39 42 39
34 36 42 41 36 33 35 35 38 38 39 39 35 36 35 34 34 30 34 37 39 41 35 40 41 41 42 41 40 35 37 37 39 34 39 39 37 37 35 37 36 41 41 37 39 32 28 21 28 26 25 27 29 29 32 34 34 33 32 32 32 32 32 31 30 30 32 28 26 29 32 31 31 34 34 37 41 38 38 39 34 34 35 35 35 35 35 35
40 40 41 43 36 38 37 39 40 40 38 38 37 37 35 34 34 36 35 37 39 40 40 32 39 41 41 43 41 38 39 34 32 39 37 37 37 37 36 36 38 38 39 39 38 40 33 29 32 31 30 33 34 35 36 35 34 33 32 32 33 32 32 32 32 32 32 30 31 30 31 31 32 33 38 40 38 37 38 36 35 34 34 36 35 35 35 35
38 38 39 41 40 39 39 38 38 37 35 36 32 36 34 34 34 38 38 37 32 38 43 39 40 42 41 41 41 38 40 40 39 35 39 38 37 37 37 37 35 40 38 38 40 43 34 31 36 33 28 30 33 34 34 34 32 30 31 32 31 31 31 32 32 32 34 33 33 33 32 32 34 38 39 39 40 40 38 34 32 32 35 38 36 36 36 35
42 43 42 39 37 37 38 36 35 34 31 34 34 36 36 37 36 38 37 39 37 37 40 39 41 39 40 40 40 40 43 42 41 40 40 38 35 39 36 38 38 37 37 37 39 41 38 33 37 32 28 29 32 32 31 31 30 29 28 29 28 27 26 28 26 31 30 30 32 31 30 31 35 38 39 38 37 35 33 32 34 35 37 38 37 36 36 35
44 45 44 39 34 39 35 36 34 32 28 35 38 37 36 37 38 36 31 37 40 42 42 42 42 39 39 38 38 40 41 41 40 39 39 38 37 37 36 35 34 34 36 36 38 35 36 35 32 31 28 26 31 33 31 29 26 23 25 28 30 30 31 33 33 34 33 34 29 24 27 30 33 39 35 34 34 34 34 34 35 36 37 36 36 35 36 34